Погода Кемерово

Погода Кемерово : погода сейчас, прогноз погоды и архив. Всё, что Вы хотите узнать о погоде Кемерово!

Поиск расширенной информации на нашем сайте:

Другие новости

Новости СМИ2

Главная страница сайта

Новости сайта

02.10.2013

Напоминаем, что на нашем новом сайте вы можете получить высокодетализированные прогнозы погоды по пунктам России, СНГ и мира (включающие важные для авиации метеовеличины, такие как направление и скорость ветра, видимость, явления погоды, количество и форма облачности, нижняя и верхняя граница облачности), а также ознакомиться с разнообразными материалами по авиационной метеорологии и подборкой полезных ссылок на эту тему.

Сайт Метеоцентр.Азия посвящён разработке технологий оптимизации авиаметеорологического обслуживания, включая проектирование и перспективное создание нескольких автоматизированных авиаметеорологических систем:
- система выпуска высокодетальных прогностических карт явлений погоды для нижнего воздушного пространства по России и ближнему зарубежью;
- система верификации прогнозов TAF (выпускаемых синоптиками официальных АМСГ РФ и ближнего зарубежья) и AUTOTAF (выпускаемых сайтом Метеоцентр.Азия) - выявление ошибок, онлайн-сопоставление с фактической погодой METAR, автоматическое внесение коррективов в прогнозы при резком отклонении фактической погоды от прогноза, подсчёт оправдываемости прогнозов по элементам и в целом;
- система обработки, анализа и отображения авиаметеорологической информации для применения провайдерами метеорологической информации.

Рекомендуем: Натяжные потолки какие натяжные потолки купить.

Погода Кемерово - сегодня

Время (UTC), дата Ветер
(°,м/с) 
Видим.   Явления Облачность Т
(°С)
Тd
(°С)
f(%) Тe
(°С)
Pmin
(гПа)
dP
(гПа)
Po
(мм)
O2
(г/м3)
Тmin Tmax R s Состояние
почвы
03 23.04.17 240 (ЮЗ) 10 км  слаб. ливневой дождь  10/10 600 м кучево-дожд. 
[Cb cap]
+9.1 +8.4 95 +9  1011.4  2.3  745  289  +6.3         
06 23.04.17 240 (ЮЗ) 4{10}  20000 м  {ливн. осадки}  10/10 600 м 
[Sc]
+8.4 +5.6 83 +7  1015  3.6  748  291           
09 23.04.17 240 (ЮЗ) 20000 м  {ливн. осадки}  10/10 630 м 
[Sc]
+7.4 +4.8 84 +7  1018  2.8  750  293           
12 23.04.17 230 (ЮЗ) 20000 м  {ливн. осадки}  10/4 600 м средняя 
[Sc|Ac und]
+7.5 +3.9 78 +7  1019.5  1.4  751  294    +9.1     
15 23.04.17 200 (Ю) 20000 м    10/10 630 м 
[Sc]
+6.3 +4.2 86 +7  1020.3  0.8  752  295           
18 23.04.17 170 (Ю) 20000 м    10/0 средняя 
[Ac und]
+6 +4.4 89 +7  1020.5  0.1  752  296           
21 23.04.17 150 (ЮВ) 10 км    10/0 средняя 
[Ac und]
+5.9 +4.6 91 +6  1019.5  -0.9  751  295           
00 24.04.17 170 (Ю) 10 км    10/3 600 м средняя, верхняя 
[Sc|Ac trans|Ci fib]
+4 +2.6 91 +4  1019.4  -0.3  751  298  +4         
03 24.04.17 150 (ЮВ) 20000 м    9/0 верхняя 
[Ci fib]
+10.3 +3.6 63 +9  1017.1  -1.8  749  290           
06 24.04.17 170 (Ю) 20000 м    10/8 600 м верхняя 
[Sc|Ci fib]
+14.4 +3.2 47 +14  1015.8  -1  749  286           
09 24.04.17 250 (З) 5{11}  20000 м    8/5 600 м верхняя 
[Sc|Ci fib]
+15.3 +0.4 36 +15  1016.2  0.4  749  286           
12 24.04.17 260 (З) 4{10}  20000 м    10/10 660 м 
[Sc]
+11.6 +2 52 +11  1017.5  750  289    +16.5       
15 24.04.17 220 (ЮЗ) 3{10}  10 км  слаб. ливневой дождь  10/10 630 м кучево-дожд. 
[Cb cap]
+9 +3.2 67 +8  1019.4  1.8  751  292           
18 24.04.17 160 (Ю) 20000 м  {ливн. осадки}  9/8 630 м верхняя 
[Sc|Ci fib]
+6.7 +3.3 79 +8  1021.7  2.1  753  295           
21 24.04.17 тихо ()   20000 м    8/6 660 м верхняя 
[Sc|Ci fib]
+3.1 +1.8 91 +3  1024.2  2.2  754  300           
00 25.04.17 тихо ()   10 км    6/3 600 м верхняя 
[Sc|Ci fib]
+2.6 +2 96 +3  1026.8  2.5  756  302  +0.4    0.0     
03 25.04.17 210 (ЮЗ) 20000 м    3/1 600 м верхняя 
[Cu med, cong|Ci fib]
+9.7 +4.5 70 +10  1028.7  2.4  758  294           
06 25.04.17 120 (ЮВ) 20000 м    9/4 600 м верхняя 
[Cu hum|Ci fib]
+13.6 +2.7 48 +14  1029.3  0.8  759  291           
09 25.04.17 140 (ЮВ) 20000 м    10/3 600 м верхняя 
[Cu hum|Ci sp]
+15.2 +2 41 +17  1029.1  -0.2  758  289           
12 25.04.17 180 (Ю) 20000 м    10/0 средняя, верхняя 
[Ac trans|Ci]
+15.1 +2.1 41 +16  1028.8  -0.3  758  289    +15.9       
15 25.04.17 230 (ЮЗ) 20000 м    6/1 600 м верхняя 
[Sc|Ci fib]
+9.7 +2.2 59 +11  1029.6  0.5  759  295           
18 25.04.17 160 (Ю) 20000 м    3/0 верхняя 
[Ci fib]
+7.4 +2.5 71 +8  1029.5  -0.2  758  297           
21 25.04.17 тихо ()   20000 м    ясно 
+2.3 +0.9 90 +2  1029.5  -0.4  758  303           
00 26.04.17 тихо ()   10 км    10/0 верхняя 
[Ci fib]
+3.4 +1.8 89 +3  1029.3  -0.1  758  301  +2         
03 26.04.17 160 (Ю) 20000 м    8/0 верхняя 
[Ci fib]
+12.9 +3.9 54 +14  1027.4  -1.2  757  291           
Время (UTC), дата Ветер
(°,м/с) 
Видим.   Явления Облачность Т
(°С)
Тd
(°С)
f(%) Тe
(°С)
Pmin
(гПа)
dP
(гПа)
Po
(мм)
O2
(г/м3)
Тmin Tmax R s Состояние
почвы

Для получения пояснительной информации подведите курсор к названию столбца.

ПОГОДА Кемерово - архив

Всё, что Вы хотите узнать о погоде Кемерово - удобно и подробно!

Выберите нужную дату (начиная с 1 января 2015* года) и нажмите кнопку "Найти".
Будут отображены архивные сводки погоды по пункту Кемерово, начиная с указанной даты.


Отображать данные в формате CSV (для использования в таблицах Excel)


Внимание! Наш архив погоды предназначен исключительно для личного некоммерческого использования в познавательных целях. Если Вам необходимы официальные справки о состоянии погоды (для производственных, юридических, коммерческих и т.п. целей), обращайтесь в органы Росгидромета.

*Примечание: данная дата относится к архиву по метеостанциям СССР (Россия, СНГ, Балтия).
Архив по метеостанциям Зарубежной Европы и Азии (кроме Китая) хранится 10 дней, по другим регионам земного шара (Китай, Африка, Америка, Австралия, Океания) - 1 день.

Кемерово - район местоположения метеостанции


Название, широта, долгота, высота метеостанции:
Кемерово (город) 55.2°ш. 86.1°д. 260 м над ур. моря [Российская Федерация]

Дополнительная информация

В oтличие oт бoльшинства пoгoдных сайтoв мы публикуем пoдрoбную метеoинфoрмацию в детальнoм прoфессиoнальнoм фoрмате.

Характеристики температуры и влажнoсти вoздуха измеряются на высoте 2 м в тени вдали oт зданий и деревьев.
Скoрoсть ветра измеряется на высoте 10 м (на урoвне рoста челoвека скoрoсть ветра ниже в 1.5-2 раза). Если метеoстанция нахoдится в гoрoде или в лесу, тo скoрoсть ветра занижена на 2-4 м/с пo сравнению с oткрытым местoм. Скoрoсть ветра над акватoриями крупных рек и oзёр, а также на вершинах хoлмoв на 2-5 м/с выше, чем в oбычных услoвиях.
Атмoсфернoе давление в разных тoчках местнoсти мoжет значительнo oтличаться oт давления на метеoстанции, в зависимoсти oт услoвий рельефа (при пoдъёме на 10 м давление пoнижается примернo на 1 мм рт.ст.).